Frankfort, MI

6:37 AM EDT on July 21, 2017 (GMT -0400)
Frankfort

Weather History for KFKS - June, 2013

Change the Weather History Date:

Wednesday, June 26, 2013

  Actual Average (KMBL) Record (KMBL)
Temperature  
Mean Temperature 68 °F -  
Max Temperature 80 °F 78 °F 93 °F (1983)
Min Temperature 55 °F 55 °F 39 °F (1992)
Cooling Degree Days 2    
Growing Degree Days 18 (Base 50)    
Moisture  
Dew Point 61 °F    
Average Humidity 80    
Maximum Humidity 96    
Minimum Humidity 60    
Precipitation  
Precipitation 0.00 in - - ()
Sea Level Pressure  
Sea Level Pressure 29.80 in    
Wind  
Wind Speed 2 mph (WSW)    
Max Wind Speed 10 mph    
Max Gust Speed 20 mph    
Visibility 8 miles    
Events Fog    
Averages and records for this station are not official NWS values.
T = Trace of Precipitation, MM = Missing Value Source: NWS Daily Summary

Daily Weather History Graph

Daily Weather History Graph

Search for Another Location

Airport or City:

Trip Planner

Search our weather history database for the weather conditions in past years. The results will help you decide how hot, cold, wet, or windy it might be!

Date:

Astronomy

Jun. 26, 2013 Rise Set
Actual Time 6:01 AM EDT 9:34 PM EDT
Civil Twilight 5:24 AM EDT 10:11 PM EDT
Nautical Twilight 4:35 AM EDT 10:59 PM EDT
Astronomical Twilight 3:31 AM EDT 12:03 AM EDT
Moon 11:45 PM EDT (6/26) 10:01 AM EDT (6/26)
Length of Visible Light 16h 46m
Length of Day
15h 33m
Waning Gibbous, 85% of the Moon is Illuminated
Jun 26
Waning Gibbous
Jun 30
Last Quarter
Jul 8
New
Jul 15
First Quarter
Jul 22
Full

Hourly Weather History & Observations

Time (EDT) Temp. Heat Index Dew Point Humidity Pressure Visibility Wind Dir Wind Speed Gust Speed Precip Events Conditions
12:14 AM 59.5 °F - 57.6 °F 93% 29.83 in 10.0 mi WNW 4.6 mph - N/A   Clear
12:34 AM 59.0 °F - 56.8 °F 93% 29.83 in 10.0 mi Calm Calm - N/A   Clear
12:55 AM 61.3 °F - 59.5 °F 94% 29.84 in 10.0 mi Calm Calm - N/A   Clear
1:15 AM 60.4 °F - 58.5 °F 93% 29.84 in 10.0 mi Calm Calm - N/A   Clear
1:35 AM 59.9 °F - 57.7 °F 93% 29.84 in 10.0 mi Calm Calm - N/A   Clear
1:55 AM 59.4 °F - 57.6 °F 94% 29.84 in 7.0 mi Calm Calm - N/A   Clear
2:15 AM 58.1 °F - 56.3 °F 94% 29.84 in 10.0 mi Calm Calm - N/A   Clear
2:35 AM 58.8 °F - 57.0 °F 94% 29.83 in 4.0 mi Calm Calm - N/A   Scattered Clouds
2:55 AM 61.0 °F - 59.2 °F 94% 29.84 in 1.0 mi Calm Calm - N/A   Overcast
3:15 AM 61.9 °F - 60.3 °F 94% 29.83 in 0.2 mi Calm Calm - N/A Fog Fog
3:35 AM 61.7 °F - 60.3 °F 95% 29.83 in 0.2 mi Calm Calm - N/A Fog Fog
3:56 AM 61.2 °F - 59.9 °F 96% 29.83 in 0.2 mi Calm Calm - N/A Fog Fog
4:16 AM 60.4 °F - 59.2 °F 96% 29.82 in 1.2 mi Calm Calm - N/A   Mostly Cloudy
4:36 AM 58.6 °F - 57.2 °F 95% 29.82 in 1.5 mi Calm Calm - N/A   Mostly Cloudy
4:56 AM 57.9 °F - 56.5 °F 95% 29.81 in 0.5 mi Calm Calm - N/A Fog Fog
5:16 AM 57.7 °F - 56.5 °F 96% 29.80 in 0.2 mi Calm Calm - N/A Fog Fog
5:36 AM 57.2 °F - 55.9 °F 96% 29.80 in 3.0 mi Calm Calm - N/A   Clear
5:56 AM 56.1 °F - 54.9 °F 96% 29.80 in 1.0 mi Calm Calm - N/A   Mist
6:16 AM 55.9 °F - 54.7 °F 96% 29.81 in 7.0 mi Calm Calm - N/A   Scattered Clouds
6:36 AM 56.3 °F - 54.9 °F 95% 29.81 in 10.0 mi Calm Calm - N/A   Scattered Clouds
6:56 AM 56.7 °F - 55.2 °F 95% 29.82 in 10.0 mi Calm Calm - N/A   Clear
7:17 AM 57.9 °F - 56.5 °F 95% 29.81 in 10.0 mi Calm Calm - N/A   Clear
7:32 AM 59.5 °F - 58.1 °F 95% 29.81 in 10.0 mi Calm Calm - N/A   Clear
7:52 AM 62.1 °F - 60.4 °F 94% 29.81 in 10.0 mi Calm Calm - N/A   Clear
8:12 AM 65.7 °F - 63.5 °F 93% 29.82 in 7.0 mi Calm Calm - N/A   Clear
8:32 AM 67.3 °F - 64.4 °F 90% 29.82 in 10.0 mi Calm Calm - N/A   Clear
8:52 AM 68.9 °F - 65.1 °F 88% 29.82 in 10.0 mi Calm Calm - N/A   Clear
9:12 AM 70.7 °F - 65.8 °F 85% 29.83 in 10.0 mi SW 3.5 mph - N/A   Clear
9:32 AM 71.6 °F - 65.8 °F 82% 29.83 in 10.0 mi West 4.6 mph - N/A   Clear
9:52 AM 74.1 °F - 64.9 °F 73% 29.83 in 10.0 mi Calm Calm - N/A   Clear
10:13 AM 74.8 °F - 64.9 °F 71% 29.82 in 10.0 mi SSW 5.8 mph - N/A   Clear
10:33 AM 75.7 °F - 64.8 °F 69% 29.81 in 10.0 mi South 3.5 mph - N/A   Clear
10:53 AM 76.3 °F - 64.9 °F 68% 29.81 in 10.0 mi WSW 9.2 mph - N/A   Clear
11:13 AM 75.2 °F - 64.4 °F 69% 29.81 in 10.0 mi SW 10.4 mph - N/A   Clear
11:33 AM 75.7 °F - 64.6 °F 68% 29.81 in 10.0 mi SSW 8.1 mph - N/A   Clear
11:53 AM 77.9 °F - 65.1 °F 65% 29.80 in 10.0 mi SW 4.6 mph - N/A   Clear
12:13 PM 80.6 °F 82.5 °F 65.5 °F 60% 29.80 in 10.0 mi SW 3.5 mph - N/A   Clear
12:33 PM 79.9 °F - 66.0 °F 62% 29.80 in 10.0 mi WNW 5.8 mph - N/A   Clear
12:53 PM 79.0 °F - 66.0 °F 64% 29.79 in 10.0 mi WSW 9.2 mph - N/A   Clear
1:14 PM 75.4 °F - 64.4 °F 69% 29.80 in 10.0 mi WNW 8.1 mph - N/A   Clear
1:34 PM 75.6 °F - 64.4 °F 68% 29.80 in 10.0 mi West 5.8 mph - N/A   Clear
1:54 PM 76.1 °F - 64.9 °F 68% 29.79 in 10.0 mi West 4.6 mph - N/A   Clear
2:14 PM 78.3 °F - 65.7 °F 65% 29.79 in 10.0 mi WSW 5.8 mph - N/A   Clear
2:34 PM 79.0 °F - 65.8 °F 64% 29.78 in 10.0 mi WSW 6.9 mph - N/A   Clear
2:54 PM 75.7 °F - 64.8 °F 69% 29.78 in 10.0 mi West 6.9 mph - N/A   Clear
3:14 PM 76.6 °F - 64.9 °F 67% 29.78 in 10.0 mi West 5.8 mph - N/A   Clear
3:34 PM 73.0 °F - 63.3 °F 71% 29.80 in 10.0 mi WSW 10.4 mph 19.6 mph N/A   Clear
3:54 PM 69.1 °F - 61.5 °F 77% 29.80 in 10.0 mi SW 3.5 mph - N/A   Clear
4:14 PM 70.7 °F - 61.7 °F 73% 29.80 in 10.0 mi West 6.9 mph - N/A   Scattered Clouds
4:35 PM 73.2 °F - 62.6 °F 69% 29.79 in 10.0 mi SW 3.5 mph - N/A   Scattered Clouds
4:55 PM 73.8 °F - 62.6 °F 68% 29.80 in 10.0 mi SW 5.8 mph - N/A   Scattered Clouds
5:15 PM 71.2 °F - 60.3 °F 68% 29.80 in 10.0 mi WSW 6.9 mph - N/A   Scattered Clouds
5:35 PM 72.3 °F - 61.0 °F 67% 29.79 in 10.0 mi SW 3.5 mph - N/A   Clear
5:55 PM 71.1 °F - 60.4 °F 69% 29.79 in 10.0 mi SSW 6.9 mph - N/A   Clear
6:15 PM 69.4 °F - 60.6 °F 73% 29.80 in 10.0 mi SW 4.6 mph - N/A   Clear
6:35 PM 69.3 °F - 60.6 °F 74% 29.78 in 10.0 mi SW 6.9 mph - N/A   Clear
6:55 PM 69.6 °F - 60.4 °F 73% 29.78 in 10.0 mi Calm Calm - N/A   Clear
7:16 PM 70.7 °F - 60.6 °F 70% 29.77 in 10.0 mi Calm Calm - N/A   Clear
7:36 PM 70.7 °F - 59.9 °F 69% 29.76 in 10.0 mi Calm Calm - N/A   Clear
7:56 PM 72.0 °F - 60.6 °F 67% 29.76 in 10.0 mi Calm Calm - N/A   Clear
8:16 PM 72.5 °F - 61.0 °F 67% 29.75 in 10.0 mi SE 3.5 mph - N/A   Clear
8:36 PM 72.0 °F - 60.6 °F 67% 29.76 in 10.0 mi Calm Calm - N/A   Clear
8:56 PM 72.5 °F - 60.3 °F 65% 29.76 in 10.0 mi Calm Calm - N/A   Clear
9:16 PM 70.7 °F - 62.2 °F 75% 29.76 in 10.0 mi Calm Calm - N/A   Clear
9:36 PM 69.1 °F - 61.9 °F 78% 29.77 in 10.0 mi Calm Calm - N/A   Clear
9:56 PM 68.0 °F - 61.7 °F 80% 29.78 in 10.0 mi Calm Calm - N/A   Clear
10:16 PM 67.3 °F - 61.7 °F 82% 29.79 in 10.0 mi Calm Calm - N/A   Clear
10:37 PM 66.4 °F - 61.2 °F 83% 29.79 in 10.0 mi Calm Calm - N/A   Clear
10:52 PM 64.4 °F - 60.3 °F 86% 29.80 in 10.0 mi Calm Calm - N/A   Clear
11:12 PM 64.2 °F - 60.3 °F 87% 29.80 in 10.0 mi Calm Calm - N/A   Clear
11:32 PM 63.9 °F - 60.4 °F 89% 29.80 in 10.0 mi Calm Calm - N/A   Clear
11:52 PM 64.8 °F - 61.2 °F 88% 29.80 in 10.0 mi Calm Calm - N/A   Mostly Cloudy